Location: Dziadowski
(50.3833°N, 20.0333°E)
Time: 20:06:30
(UTC+00:00)

Cosmos 1707 Rocket - Pass Details

Date: 18 January 2026
Orbit: 599 x 624 km, 82.5° (Epoch: 14 February)

Event Time Altitude Azimuth Distance (km) Brightness Sun altitude
Exits shadow 04:38:15 - 349° (N) 2,329 6.3 -17.5°
Reaches altitude 10° 04:39:10 10° 349° (N) 1,957 5.9 -17.4°
Maximum altitude 04:43:30 86° 261° (W) 612 3.4 -16.7°
Drops below altitude 10° 04:47:49 10° 173° (S) 1,952 6.4 -16.1°
Sets 04:50:02 0° 173° (S) 2,855 7.2 -15.7°
